Date String (YYYY-MM-DD hh:mm:ss) UTC,Instrument flags,Ambient pressure (hPa),Sample flow (lpm),Bypass flow (lpm),Sample temperature (°C),Ambient temperature (°C),ASC tube jacket temperature (°C),LED temperature (°C),Box temperature (°C),Sample RH (%),Span deviation,Mass concentration (μg/m³),Mass concentration (μg/m³),Mass concentration (μg/m³)
DateTimeUTC,F1_M11,P_M11,Q1_M11,Q2_M11,T1_M11,T2_M11,T3_M11,T4_M11,T5_M11,U1_M11,ZSPAN_M11,X0_M11,X2_M11,X1_M11
2022-03-13 09:00:00,,0822.6,5.01,0.00,22.8,22.0,00.0,31.7,24.6,10.8,0000.0,0009.12,0002.77,0001.86
2022-03-13 09:01:00,,0822.6,5.00,0.00,22.8,22.0,00.0,31.7,24.6,10.7,0000.0,0009.71,0002.89,0001.88
2022-03-13 09:02:00,,0822.6,4.99,0.00,22.8,22.0,00.0,31.7,24.6,10.7,0000.0,0010.62,0003.02,0001.90
2022-03-13 09:03:00,,0822.7,5.01,0.00,22.8,22.0,00.0,31.7,24.6,10.8,0000.0,0010.31,0003.12,0001.92
2022-03-13 09:04:00,,0822.6,4.99,0.00,22.8,22.0,00.0,31.7,24.6,10.9,0000.0,0010.45,0003.17,0001.94
2022-03-13 09:05:00,,0822.6,4.99,0.00,22.8,22.0,00.0,31.7,24.6,10.7,0000.0,0010.46,0003.21,0001.96
2022-03-13 09:06:00,,0822.7,5.01,0.00,22.8,22.0,00.0,31.7,24.6,10.7,0000.0,0011.31,0003.22,0001.97
2022-03-13 09:07:00,,0822.7,5.01,0.00,22.8,22.0,00.0,31.7,24.6,10.7,0000.0,0011.55,0003.25,0001.99
2022-03-13 09:08:00,,0822.7,5.00,0.00,22.8,22.0,00.0,31.7,24.5,11.1,0000.0,0011.37,0003.26,0001.99
2022-03-13 09:09:00,,0822.6,4.99,0.00,22.7,22.0,00.0,31.7,24.5,10.9,0000.0,0011.33,0003.24,0002.00
2022-03-13 09:10:00,,0822.6,5.00,0.00,22.7,21.9,00.0,31.7,24.5,10.8,0000.0,0010.85,0003.19,0002.01
2022-03-13 09:11:00,,0822.6,5.01,0.00,22.7,21.9,00.0,31.7,24.5,10.9,0000.0,0010.03,0003.12,0002.00
2022-03-13 09:12:00,,0822.6,5.00,0.00,22.7,21.9,00.0,31.7,24.5,10.9,0000.0,0009.84,0003.09,0001.98
2022-03-13 09:13:00,,0822.5,4.99,0.00,22.7,21.9,00.0,31.7,24.5,10.8,0000.0,0009.33,0003.02,0001.97
2022-03-13 09:14:00,,0822.5,5.01,0.00,22.7,21.9,00.0,31.7,24.6,10.7,0000.0,0009.23,0002.95,0001.93
2022-03-13 09:15:00,,0822.5,4.99,0.00,22.7,21.9,00.0,31.7,24.6,10.8,0000.0,0009.12,0002.88,0001.90
2022-03-13 09:16:00,,0822.5,5.00,0.00,22.7,21.9,00.0,31.7,24.6,10.9,0000.0,0008.90,0002.79,0001.88
2022-03-13 09:17:00,,0822.5,5.00,0.00,22.7,21.9,00.0,31.7,24.5,11.0,0000.0,0007.73,0002.76,0001.86
2022-03-13 09:18:00,,0822.5,4.99,0.00,22.7,21.9,00.0,31.7,24.5,10.9,0000.0,0006.90,0002.70,0001.84
2022-03-13 09:19:00,,0822.5,5.00,0.00,22.7,21.9,00.0,31.7,24.5,10.9,0000.0,0006.66,0002.60,0001.83
2022-03-13 09:20:00,,0822.5,5.01,0.00,22.7,21.9,00.0,31.7,24.5,10.8,0000.0,0006.66,0002.57,0001.82
2022-03-13 09:21:00,,0822.5,5.00,0.00,22.7,21.9,00.0,31.7,24.5,10.9,0000.0,0006.36,0002.51,0001.82
2022-03-13 09:22:00,,0822.5,4.99,0.00,22.7,21.9,00.0,31.7,24.4,11.0,0000.0,0006.00,0002.47,0001.83
2022-03-13 09:23:00,,0822.5,5.01,0.00,22.7,21.9,00.0,31.7,24.5,11.0,0000.0,0005.44,0002.45,0001.84
2022-03-13 09:24:00,,0822.4,4.99,0.00,22.7,21.9,00.0,31.7,24.5,10.9,0000.0,0004.79,0002.44,0001.85
2022-03-13 09:25:00,,0822.5,5.01,0.00,22.7,21.9,00.0,31.7,24.5,11.0,0000.0,0004.67,0002.40,0001.88
2022-03-13 09:26:00,,0822.5,5.00,0.00,22.7,21.9,00.0,31.7,24.4,11.0,0000.0,0004.59,0002.42,0001.90
2022-03-13 09:27:00,,0822.5,4.99,0.00,22.7,21.8,00.0,31.7,24.4,10.9,0000.0,0005.22,0002.46,0001.91
2022-03-13 09:28:00,,0822.5,5.00,0.00,22.7,21.8,00.0,31.7,24.4,10.7,0000.0,0006.26,0002.49,0001.93
2022-03-13 09:29:00,,0822.4,5.00,0.00,22.7,21.8,00.0,31.7,24.4,10.7,0000.0,0006.77,0002.52,0001.94
2022-03-13 09:30:00,,0822.5,4.99,0.00,22.6,21.8,00.0,31.6,24.4,10.8,0000.0,0006.78,0002.57,0001.94
2022-03-13 09:31:00,,0822.5,5.02,0.00,22.6,21.8,00.0,31.6,24.4,10.9,0000.0,0007.27,0002.66,0001.95
2022-03-13 09:32:00,,0822.5,5.00,0.00,22.6,21.8,00.0,31.6,24.3,10.9,0000.0,0008.10,0002.72,0001.93
2022-03-13 09:33:00,,0822.5,5.00,0.00,22.6,21.8,00.0,31.6,24.3,10.9,0000.0,0008.75,0002.77,0001.91
2022-03-13 09:34:00,,0822.4,5.00,0.00,22.6,21.8,00.0,31.6,24.3,10.8,0000.0,0009.11,0002.76,0001.90
2022-03-13 09:35:00,,0822.4,5.02,0.00,22.6,21.7,00.0,31.6,24.2,10.8,0000.0,0009.08,0002.76,0001.88
2022-03-13 09:36:00,,0822.4,5.00,0.00,22.6,21.7,00.0,31.6,24.3,10.8,0000.0,0009.17,0002.79,0001.86
2022-03-13 09:37:00,,0822.4,4.99,0.00,22.5,21.7,00.0,31.6,24.2,11.1,0000.0,0009.26,0002.81,0001.85
2022-03-13 09:38:00,,0822.4,5.00,0.00,22.5,21.7,00.0,31.6,24.2,11.0,0000.0,0009.24,0002.89,0001.84
2022-03-13 09:39:00,,0822.3,5.01,0.00,22.5,21.6,00.0,31.6,24.2,10.7,0000.0,0008.69,0002.87,0001.81
2022-03-13 09:40:00,,0822.4,5.00,0.00,22.5,21.6,00.0,31.6,24.2,10.6,0000.0,0008.36,0002.86,0001.81
2022-03-13 09:41:00,,0822.3,5.00,0.00,22.5,21.7,00.0,31.5,24.2,10.7,0000.0,0008.01,0002.83,0001.82
2022-03-13 09:42:00,,0822.3,4.99,0.00,22.5,21.7,00.0,31.5,24.2,11.0,0000.0,0007.56,0002.76,0001.81
2022-03-13 09:43:00,,0822.3,5.01,0.00,22.5,21.7,00.0,31.5,24.2,10.8,0000.0,0007.00,0002.74,0001.82
2022-03-13 09:44:00,,0822.3,4.99,0.00,22.5,21.6,00.0,31.5,24.2,10.8,0000.0,0005.96,0002.72,0001.82
2022-03-13 09:45:00,,0822.3,4.99,0.00,22.5,21.6,00.0,31.5,24.2,11.0,0000.0,0005.77,0002.87,0001.83
2022-03-13 09:46:00,,0822.4,5.00,0.00,22.5,21.6,00.0,31.5,24.2,10.9,0000.0,0006.60,0002.94,0001.83
2022-03-13 09:47:00,,0822.3,5.01,0.00,22.4,21.6,00.0,31.5,24.1,11.1,0000.0,0006.85,0002.95,0001.85
2022-03-13 09:48:00,,0822.3,5.01,0.00,22.4,21.6,00.0,31.5,24.1,11.0,0000.0,0006.72,0002.91,0001.84
2022-03-13 09:49:00,,0822.2,4.99,0.00,22.4,21.6,00.0,31.5,24.1,10.8,0000.0,0006.37,0002.81,0001.83
2022-03-13 09:50:00,,0822.3,4.99,0.00,22.4,21.6,00.0,31.5,24.1,11.0,0000.0,0006.33,0002.81,0001.83
2022-03-13 09:51:00,,0822.3,5.01,0.00,22.4,21.6,00.0,31.5,24.1,11.1,0000.0,0006.42,0002.80,0001.82
2022-03-13 09:52:00,,0822.5,5.01,0.00,22.4,21.6,00.0,31.4,24.1,11.1,0000.0,0007.50,0002.82,0001.80
2022-03-13 09:53:00,,0822.5,5.00,0.00,22.4,21.6,00.0,31.4,24.1,11.4,0000.0,0007.47,0002.79,0001.77
2022-03-13 09:54:00,,0822.5,5.00,0.00,22.4,21.6,00.0,31.4,24.1,11.5,0000.0,0007.74,0002.71,0001.75
2022-03-13 09:55:00,,0822.4,5.00,0.00,22.4,21.6,00.0,31.4,24.1,11.4,0000.0,0008.09,0002.69,0001.74
2022-03-13 09:56:00,,0822.3,4.99,0.00,22.3,21.5,00.0,31.4,24.1,11.3,0000.0,0007.82,0002.55,0001.74
2022-03-13 09:57:00,,0822.3,5.01,0.00,22.3,21.5,00.0,31.4,24.0,11.2,0000.0,0007.61,0002.49,0001.73
2022-03-13 09:58:00,,0822.3,4.98,0.00,22.2,21.4,00.0,31.4,23.9,11.1,0000.0,0007.52,0002.50,0001.73
2022-03-13 09:59:00,,0822.2,5.01,0.00,22.2,21.4,00.0,31.4,24.0,11.1,0000.0,0007.53,0002.50,0001.75
